"SCLK","SCET","ORBIT_NUMBER","ALTITUDE","LATITUDE_PLANEOGRAPHIC","LATITUDE_PLANETOCENTRIC","LOCAL_TRUE_SOLAR_TIME","WEST_LONGITUDE","X_SUN_DIR_DISTANCE","RHO_PRP_SUN_DISTANCE","SOLAR_ZENITH_ANGLE","ELECTRON_PLASMA_FREQUENCY","FPE_QUALITY","FPP_VERIFICATION","ELECTRON_PLASMA_DENSITY","ELECTRON_CYCLOTRON_PERIOD","FCP_QUALITY","B_MAGNITUDE"
"1/0365294829.47589",2014-11-28T22:47:13.665,13847,1564.00,41.69,41.43,"16:10:29",104.99,-1.210,0.810,146.13,4.40e+01,2,,2.40e+01,2.02e+00,1,1.77e+01
"1/0365294837.17639",2014-11-28T22:47:21.208,13847,1553.00,41.97,41.71,"16:10:36",104.99,-1.210,0.810,145.99,4.40e+01,2,,2.40e+01,2.00e+00,1,1.79e+01
"1/0365294844.53290",2014-11-28T22:47:28.752,13847,1542.00,42.26,41.99,"16:10:44",104.99,-1.200,0.810,145.85,4.40e+01,2,,2.40e+01,2.00e+00,1,1.79e+01
"1/0365294852.23340",2014-11-28T22:47:36.295,13847,1531.00,42.54,42.27,"16:08:33",105.00,-1.200,0.810,145.71,4.20e+01,2,,2.19e+01,2.03e+00,1,1.76e+01
"1/0365294859.58926",2014-11-28T22:47:43.838,13847,1521.00,42.83,42.56,"16:08:41",105.00,-1.190,0.810,145.57,4.10e+01,2,,2.08e+01,1.96e+00,2,1.83e+01
"1/0365294867.28976",2014-11-28T22:47:51.381,13847,1510.00,43.11,42.84,"16:08:48",105.00,-1.190,0.820,145.42,4.20e+01,2,,2.19e+01,1.90e+00,2,1.88e+01
"1/0365294874.64562",2014-11-28T22:47:58.924,13847,1499.00,43.40,43.13,"16:08:55",105.00,-1.180,0.820,145.27,4.40e+01,2,,2.40e+01,1.96e+00,1,1.83e+01
"1/0365294882.34678",2014-11-28T22:48:06.468,13847,1488.00,43.69,43.42,"16:09:03",105.00,-1.180,0.820,145.12,4.20e+01,2,,2.19e+01,1.88e+00,1,1.90e+01
"1/0365294890.04728",2014-11-28T22:48:14.011,13847,1478.00,43.98,43.71,"16:09:10",105.00,-1.170,0.820,144.97,6.10e+01,2,,4.61e+01,,,
"1/0365294897.40314",2014-11-28T22:48:21.554,13847,1467.00,44.27,44.00,"16:07:00",105.01,-1.170,0.820,144.82,6.50e+01,2,,5.24e+01,1.94e+00,1,1.84e+01
"1/0365294905.10364",2014-11-28T22:48:29.097,13847,1456.00,44.56,44.29,"16:07:07",105.01,-1.160,0.820,144.66,6.50e+01,2,,5.24e+01,1.88e+00,1,1.90e+01
"1/0365294912.45950",2014-11-28T22:48:36.640,13847,1446.00,44.86,44.58,"16:09:32",105.00,-1.160,0.820,144.50,4.70e+01,1,,2.74e+01,1.76e+00,1,2.03e+01
"1/0365294920.16066",2014-11-28T22:48:44.184,13847,1435.00,45.15,44.88,"16:09:39",105.00,-1.160,0.820,144.34,4.70e+01,1,,2.74e+01,1.78e+00,1,2.01e+01
"1/0365294927.51652",2014-11-28T22:48:51.727,13847,1425.00,45.45,45.18,"16:09:47",105.00,-1.150,0.830,144.18,4.50e+01,2,,2.51e+01,1.87e+00,1,1.91e+01
"1/0365294935.21702",2014-11-28T22:48:59.270,13847,1414.00,45.75,45.47,"16:09:54",105.00,-1.150,0.830,144.01,4.90e+01,2,,2.98e+01,1.96e+00,1,1.83e+01
"1/0365294942.57288",2014-11-28T22:49:06.813,13847,1404.00,46.05,45.77,"16:10:01",105.00,-1.140,0.830,143.84,4.90e+01,2,,2.98e+01,1.99e+00,1,1.79e+01
"1/0365294950.27338",2014-11-28T22:49:14.356,13847,1393.00,46.35,46.07,"16:10:09",105.00,-1.140,0.830,143.67,4.80e+01,1,,2.86e+01,,,
"1/0365294957.62989",2014-11-28T22:49:21.900,13847,1383.00,46.65,46.37,"16:12:34",104.99,-1.130,0.830,143.50,4.70e+01,1,,2.74e+01,2.06e+00,2,1.74e+01
"1/0365294965.33039",2014-11-28T22:49:29.443,13847,1372.00,46.95,46.67,"16:12:41",104.99,-1.130,0.830,143.33,5.00e+01,2,,3.10e+01,2.04e+00,1,1.75e+01
"1/0365294973.03089",2014-11-28T22:49:36.986,13847,1362.00,47.26,46.98,"16:15:06",104.98,-1.120,0.840,143.15,4.90e+01,2,,2.98e+01,2.09e+00,1,1.71e+01
"1/0365294980.38675",2014-11-28T22:49:44.529,13847,1352.00,47.56,47.28,"16:15:13",104.98,-1.120,0.840,142.97,5.10e+01,2,,3.23e+01,2.05e+00,1,1.74e+01
"1/0365294988.08725",2014-11-28T22:49:52.072,13847,1341.00,47.87,47.59,"16:17:38",104.97,-1.110,0.840,142.79,5.40e+01,2,,3.62e+01,2.03e+00,1,1.76e+01
"1/0365294995.44377",2014-11-28T22:49:59.616,13847,1331.00,48.18,47.90,"16:17:45",104.97,-1.110,0.840,142.61,5.60e+01,2,,3.89e+01,2.00e+00,1,1.79e+01
"1/0365295003.14427",2014-11-28T22:50:07.159,13847,1321.00,48.49,48.21,"16:20:10",104.96,-1.100,0.840,142.42,5.40e+01,2,,3.62e+01,1.99e+00,1,1.79e+01
"1/0365295010.50013",2014-11-28T22:50:14.702,13847,1310.00,48.80,48.52,"16:22:35",104.95,-1.090,0.840,142.23,5.40e+01,2,,3.62e+01,2.04e+00,1,1.75e+01
"1/0365295018.20063",2014-11-28T22:50:22.245,13847,1300.00,49.11,48.83,"16:22:42",104.95,-1.090,0.850,142.04,5.80e+01,2,,4.17e+01,2.04e+00,1,1.75e+01
"1/0365295025.55649",2014-11-28T22:50:29.788,13847,1290.00,49.42,49.14,"16:25:07",104.94,-1.080,0.850,141.85,5.80e+01,2,,4.17e+01,1.94e+00,1,1.84e+01
"1/0365295033.25765",2014-11-28T22:50:37.332,13847,1280.00,49.74,49.46,"16:27:32",104.93,-1.080,0.850,141.66,5.50e+01,2,,3.75e+01,1.95e+00,1,1.83e+01
"1/0365295040.61351",2014-11-28T22:50:44.875,13847,1270.00,50.05,49.77,"16:29:57",104.92,-1.070,0.850,141.46,5.80e+01,2,,4.17e+01,2.15e+00,1,1.66e+01
"1/0365295048.31401",2014-11-28T22:50:52.418,13847,1259.00,50.37,50.09,"16:32:22",104.91,-1.070,0.850,141.26,6.20e+01,2,,4.77e+01,2.16e+00,1,1.65e+01
"1/0365295056.01451",2014-11-28T22:50:59.961,13847,1249.00,50.69,50.41,"16:34:47",104.90,-1.060,0.850,141.06,6.10e+01,2,,4.61e+01,2.29e+00,2,1.56e+01
"1/0365295063.37037",2014-11-28T22:51:07.504,13847,1239.00,51.01,50.73,"16:39:29",104.88,-1.060,0.860,140.86,5.00e+01,2,,3.10e+01,2.19e+00,1,1.63e+01
"1/0365295071.07152",2014-11-28T22:51:15.048,13847,1229.00,51.33,51.05,"16:41:54",104.87,-1.050,0.860,140.65,4.70e+01,1,,2.74e+01,2.17e+00,2,1.64e+01
"1/0365295078.42738",2014-11-28T22:51:22.591,13847,1219.00,51.65,51.37,"16:44:19",104.86,-1.050,0.860,140.44,5.10e+01,2,,3.23e+01,2.40e+00,1,1.49e+01
"1/0365295086.12788",2014-11-28T22:51:30.134,13847,1209.00,51.98,51.70,"16:49:01",104.84,-1.040,0.860,140.24,5.40e+01,2,,3.62e+01,2.11e+00,1,1.69e+01
"1/0365295093.48374",2014-11-28T22:51:37.677,13847,1199.00,52.30,52.02,"16:51:26",104.83,-1.040,0.860,140.02,5.40e+01,2,,3.62e+01,2.35e+00,1,1.52e+01
"1/0365295101.18424",2014-11-28T22:51:45.220,13847,1190.00,52.63,52.35,"16:56:08",104.81,-1.030,0.870,139.81,5.70e+01,2,,4.03e+01,2.26e+00,2,1.58e+01
"1/0365295108.54076",2014-11-28T22:51:52.764,13847,1180.00,52.96,52.68,"17:00:51",104.79,-1.030,0.870,139.59,6.10e+01,2,,4.61e+01,2.61e+00,1,1.37e+01
"1/0365295116.24126",2014-11-28T22:52:00.307,13847,1170.00,53.29,53.01,"17:05:33",104.77,-1.020,0.870,139.37,6.50e+01,2,,5.24e+01,2.22e+00,1,1.61e+01
"1/0365295123.59712",2014-11-28T22:52:07.850,13847,1160.00,53.62,53.34,"17:10:15",104.75,-1.010,0.870,139.15,5.80e+01,2,,4.17e+01,,,
"1/0365295131.29762",2014-11-28T22:52:15.393,13847,1150.00,53.95,53.68,"17:14:58",104.73,-1.010,0.870,138.93,6.00e+01,2,,4.46e+01,2.69e+00,1,1.33e+01
"1/0365295138.65414",2014-11-28T22:52:22.937,13847,1141.00,54.29,54.01,"17:19:40",104.71,-1.000,0.880,138.71,6.20e+01,2,,4.77e+01,2.65e+00,1,1.35e+01
"1/0365295146.35464",2014-11-28T22:52:30.480,13847,1131.00,54.62,54.35,"17:24:22",104.69,-1.000,0.880,138.48,5.50e+01,2,,3.75e+01,,,
"1/0365295154.05514",2014-11-28T22:52:38.023,13847,1121.00,54.96,54.68,"17:29:05",104.67,-0.990,0.880,138.25,5.60e+01,2,,3.89e+01,,,
"1/0365295161.41100",2014-11-28T22:52:45.566,13847,1112.00,55.30,55.02,"17:36:05",104.64,-0.990,0.880,138.02,5.60e+01,2,,3.89e+01,2.86e+00,1,1.25e+01
"1/0365295169.11150",2014-11-28T22:52:53.109,13847,1102.00,55.64,55.36,"17:40:47",104.62,-0.980,0.880,137.78,6.20e+01,2,,4.77e+01,,,
"1/0365295176.46801",2014-11-28T22:53:00.653,13847,1093.00,55.98,55.70,"17:47:47",104.59,-0.970,0.890,137.55,6.10e+01,2,,4.61e+01,2.91e+00,2,1.23e+01
"1/0365295184.16851",2014-11-28T22:53:08.196,13847,1083.00,56.32,56.05,"17:54:47",104.56,-0.970,0.890,137.31,6.00e+01,2,,4.46e+01,,,
"1/0365295191.52437",2014-11-28T22:53:15.739,13847,1074.00,56.66,56.39,"18:01:47",104.53,-0.960,0.890,137.07,5.90e+01,2,,4.32e+01,,,
"1/0365295199.22487",2014-11-28T22:53:23.282,13847,1064.00,57.01,56.74,"18:08:46",104.50,-0.960,0.890,136.83,6.20e+01,2,,4.77e+01,,,
"1/0365295206.58073",2014-11-28T22:53:30.825,13847,1055.00,57.35,57.08,"18:15:46",104.47,-0.950,0.890,136.58,6.80e+01,2,,5.73e+01,3.06e+00,2,1.17e+01
"1/0365295214.28189",2014-11-28T22:53:38.369,13847,1046.00,57.70,57.43,"18:25:04",104.43,-0.950,0.900,136.34,6.30e+01,2,,4.92e+01,2.72e+00,1,1.31e+01
"1/0365295221.63775",2014-11-28T22:53:45.912,13847,1037.00,58.05,57.78,"18:32:04",104.40,-0.940,0.900,136.09,6.90e+01,2,,5.90e+01,3.01e+00,2,1.19e+01
"1/0365295229.33825",2014-11-28T22:53:53.455,13847,1027.00,58.40,58.13,"18:41:21",104.36,-0.930,0.900,135.84,7.20e+01,2,,6.43e+01,3.12e+00,1,1.15e+01
"1/0365295237.03875",2014-11-28T22:54:00.998,13847,1018.00,58.75,58.49,"18:50:38",104.32,-0.930,0.900,135.58,7.10e+01,2,,6.25e+01,2.97e+00,2,1.20e+01
"1/0365295244.39461",2014-11-28T22:54:08.541,13847,1009.00,59.11,58.84,"18:59:56",104.28,-0.920,0.910,135.33,7.00e+01,2,,6.08e+01,3.10e+00,1,1.15e+01
"1/0365295252.09577",2014-11-28T22:54:16.085,13847,1000.00,59.46,59.20,"19:09:13",104.24,-0.920,0.910,135.07,6.90e+01,2,,5.90e+01,2.93e+00,1,1.22e+01
"1/0365295259.45163",2014-11-28T22:54:23.628,13847,991.00,59.82,59.55,"19:18:30",104.20,-0.910,0.910,134.81,7.30e+01,2,,6.61e+01,2.96e+00,1,1.20e+01
"1/0365295267.15213",2014-11-28T22:54:31.171,13847,982.00,60.17,59.91,"19:30:05",104.15,-0.900,0.910,134.55,7.70e+01,2,,7.35e+01,2.72e+00,2,1.31e+01
"1/0365295274.50799",2014-11-28T22:54:38.714,13847,973.00,60.53,60.27,"19:41:40",104.10,-0.900,0.910,134.29,8.20e+01,2,,8.34e+01,2.65e+00,2,1.35e+01
"1/0365295282.20849",2014-11-28T22:54:46.257,13847,964.00,60.89,60.63,"19:53:15",104.05,-0.890,0.920,134.02,9.00e+01,2,,1.00e+02,2.58e+00,2,1.39e+01
"1/0365295289.56500",2014-11-28T22:54:53.801,13847,955.00,61.26,61.00,"20:04:50",104.00,-0.890,0.920,133.75,9.70e+01,2,,1.17e+02,2.58e+00,2,1.38e+01
"1/0365295297.26550",2014-11-28T22:55:01.344,13847,946.00,61.62,61.36,"20:16:25",103.95,-0.880,0.920,133.48,8.60e+01,2,,9.17e+01,2.34e+00,2,1.53e+01
"1/0365295304.62136",2014-11-28T22:55:08.887,13847,937.00,61.98,61.73,"20:30:17",103.89,-0.870,0.920,133.21,8.70e+01,2,,9.39e+01,2.25e+00,2,1.59e+01
"1/0365295312.32186",2014-11-28T22:55:16.430,13847,929.00,62.35,62.10,"20:44:10",103.83,-0.870,0.930,132.94,9.20e+01,2,,1.05e+02,2.43e+00,1,1.47e+01
"1/0365295320.02236",2014-11-28T22:55:23.973,13847,920.00,62.72,62.47,"20:58:02",103.77,-0.860,0.930,132.66,9.40e+01,2,,1.10e+02,2.58e+00,1,1.38e+01
"1/0365295327.37888",2014-11-28T22:55:31.517,13847,911.00,63.08,62.84,"21:11:54",103.71,-0.850,0.930,132.38,9.80e+01,2,,1.19e+02,,,
"1/0365295335.07938",2014-11-28T22:55:39.060,13847,903.00,63.45,63.21,"21:28:04",103.64,-0.850,0.930,132.10,9.50e+01,2,,1.12e+02,,,
"1/0365295342.43524",2014-11-28T22:55:46.603,13847,894.00,63.83,63.58,"21:44:14",103.57,-0.840,0.930,131.82,9.00e+01,2,,1.00e+02,3.23e+00,2,1.11e+01
"1/0365295350.13574",2014-11-28T22:55:54.146,13847,886.00,64.20,63.96,"22:02:42",103.49,-0.840,0.940,131.54,8.30e+01,2,,8.54e+01,3.38e+00,1,1.06e+01
"1/0365295357.49160",2014-11-28T22:56:01.689,13847,877.00,64.57,64.33,"22:18:52",103.42,-0.830,0.940,131.25,8.00e+01,2,,7.94e+01,,,
"1/0365295365.19276",2014-11-28T22:56:09.233,13847,869.00,64.95,64.71,"22:37:19",103.34,-0.820,0.940,130.96,9.70e+01,2,,1.17e+02,,,
"1/0365295372.54862",2014-11-28T22:56:16.776,13847,861.00,65.33,65.09,"22:58:04",103.25,-0.820,0.940,130.67,9.90e+01,2,,1.22e+02,,,
"1/0365295380.24912",2014-11-28T22:56:24.319,13847,852.00,65.70,65.47,"23:16:31",103.17,-0.810,0.950,130.38,1.01e+02,2,,1.26e+02,,,
"1/0365295387.60498",2014-11-28T22:56:31.862,13847,844.00,66.08,65.85,"23:39:34",103.07,-0.800,0.950,130.08,9.10e+01,2,,1.03e+02,,,
"1/0365295395.30548",2014-11-28T22:56:39.405,13847,836.00,66.46,66.23,"00:00:19",102.98,-0.800,0.950,129.79,9.00e+01,2,,1.00e+02,,,
"1/0365295403.00663",2014-11-28T22:56:46.949,13847,828.00,66.85,66.62,"00:23:21",102.88,-0.790,0.950,129.49,7.30e+01,2,,6.61e+01,,,
"1/0365295410.36249",2014-11-28T22:56:54.492,13847,820.00,67.23,67.00,"00:48:41",102.77,-0.780,0.960,129.19,7.60e+01,2,,7.16e+01,,,
"1/0365295418.06299",2014-11-28T22:57:02.035,13847,812.00,67.62,67.39,"01:14:01",102.66,-0.780,0.960,128.89,7.80e+01,2,,7.54e+01,,,
"1/0365295425.41885",2014-11-28T22:57:09.578,13847,804.00,68.00,67.78,"01:39:21",102.55,-0.770,0.960,128.58,8.50e+01,2,,8.96e+01,,,
"1/0365295433.11935",2014-11-28T22:57:17.121,13847,796.00,68.39,68.17,"02:06:58",102.43,-0.760,0.960,128.28,7.70e+01,2,,7.35e+01,,,
"1/0365295440.47587",2014-11-28T22:57:24.665,13847,788.00,68.78,68.56,"02:36:53",102.30,-0.760,0.960,127.97,7.50e+01,2,,6.98e+01,,,
"1/0365295448.17637",2014-11-28T22:57:32.208,13847,781.00,69.17,68.96,"03:06:48",102.17,-0.750,0.970,127.66,7.40e+01,2,,6.79e+01,,,
"1/0365295455.53223",2014-11-28T22:57:39.751,13847,773.00,69.56,69.35,"03:39:01",102.03,-0.740,0.970,127.35,7.00e+01,2,,6.08e+01,,,
"1/0365295463.23273",2014-11-28T22:57:47.294,13847,765.00,69.95,69.75,"04:11:13",101.89,-0.740,0.970,127.03,8.30e+01,2,,8.54e+01,,,
"1/0365295470.58859",2014-11-28T22:57:54.837,13847,758.00,70.35,70.14,"04:48:01",101.73,-0.730,0.970,126.72,9.60e+01,2,,1.14e+02,,,
"1/0365295478.28975",2014-11-28T22:58:02.381,13847,750.00,70.74,70.54,"05:24:48",101.57,-0.720,0.980,126.40,1.03e+02,2,,1.32e+02,,,
"1/0365295485.64561",2014-11-28T22:58:09.924,13847,743.00,71.14,70.94,"06:03:53",101.40,-0.720,0.980,126.08,1.03e+02,2,,1.32e+02,,,
"1/0365295493.34611",2014-11-28T22:58:17.467,13847,735.00,71.53,71.34,"06:45:16",101.22,-0.710,0.980,125.76,1.06e+02,2,,1.39e+02,,,
"1/0365295501.04661",2014-11-28T22:58:25.010,13847,728.00,71.93,71.74,"07:26:38",101.04,-0.700,0.980,125.43,1.00e+02,2,,1.24e+02,4.17e+00,1,8.57e+00
"1/0365295508.40247",2014-11-28T22:58:32.553,13847,721.00,72.33,72.14,"08:12:36",100.84,-0.700,0.990,125.11,1.05e+02,2,,1.37e+02,,,
"1/0365295516.10362",2014-11-28T22:58:40.097,13847,713.00,72.73,72.55,"09:00:51",100.63,-0.690,0.990,124.78,9.70e+01,2,,1.17e+02,,,
"1/0365295523.45948",2014-11-28T22:58:47.640,13847,706.00,73.13,72.95,"09:51:24",100.41,-0.680,0.990,124.45,1.01e+02,2,,1.26e+02,,,
"1/0365295531.15998",2014-11-28T22:58:55.183,13847,699.00,73.54,73.36,"10:46:31",100.17,-0.680,0.990,124.12,1.05e+02,2,,1.37e+02,,,
"1/0365295538.51584",2014-11-28T22:59:02.726,13847,692.00,73.94,73.77,"11:43:56",99.92,-0.670,0.990,123.79,9.90e+01,2,,1.22e+02,,,
"1/0365295546.21634",2014-11-28T22:59:10.269,13847,685.00,74.35,74.18,"12:43:39",99.66,-0.660,1.000,123.45,9.70e+01,2,,1.17e+02,,,
"1/0365295553.57286",2014-11-28T22:59:17.813,13847,678.00,74.75,74.59,"13:47:56",99.38,-0.650,1.000,123.12,9.80e+01,2,,1.19e+02,,,
"1/0365295561.27336",2014-11-28T22:59:25.356,13847,671.00,75.16,75.00,"14:56:49",99.08,-0.650,1.000,122.78,1.03e+02,2,,1.32e+02,,,
"1/0365295568.62922",2014-11-28T22:59:32.899,13847,665.00,75.57,75.41,"16:10:17",98.76,-0.640,1.000,122.44,1.17e+02,2,,1.70e+02,,,
"1/0365295576.32972",2014-11-28T22:59:40.442,13847,658.00,75.97,75.82,"17:26:02",98.43,-0.630,1.000,122.10,8.60e+01,2,,9.17e+01,2.77e+00,1,1.29e+01
"1/0365295584.03022",2014-11-28T22:59:47.985,13847,651.00,76.38,76.23,"18:48:40",98.07,-0.630,1.010,121.75,7.90e+01,2,,7.74e+01,3.14e+00,1,1.14e+01
"1/0365295591.38674",2014-11-28T22:59:55.529,13847,645.00,76.79,76.65,"20:18:10",97.68,-0.620,1.010,121.41,8.50e+01,2,,8.96e+01,,,
"1/0365295599.08724",2014-11-28T23:00:03.072,13847,638.00,77.20,77.06,"21:52:15",97.27,-0.610,1.010,121.06,7.90e+01,2,,7.74e+01,,,
"1/0365295606.44310",2014-11-28T23:00:10.615,13847,632.00,77.61,77.47,"23:35:30",96.82,-0.600,1.010,120.71,6.90e+01,2,,5.90e+01,,,
"1/0365295614.14360",2014-11-28T23:00:18.158,13847,626.00,78.02,77.89,"01:23:21",96.35,-0.600,1.020,120.36,7.50e+01,2,,6.98e+01,3.14e+00,1,1.14e+01
"1/0365295621.49946",2014-11-28T23:00:25.701,13847,619.00,78.44,78.30,"03:22:38",95.83,-0.590,1.020,120.01,7.80e+01,2,,7.54e+01,3.18e+00,1,1.12e+01
"1/0365295629.20061",2014-11-28T23:00:33.245,13847,613.00,78.85,78.72,"05:28:49",95.28,-0.580,1.020,119.66,8.00e+01,2,,7.94e+01,,,
"1/0365295636.55647",2014-11-28T23:00:40.788,13847,607.00,79.26,79.14,"07:48:44",94.67,-0.580,1.020,119.30,8.60e+01,2,,9.17e+01,2.95e+00,1,1.21e+01
"1/0365295644.25697",2014-11-28T23:00:48.331,13847,601.00,79.67,79.55,"10:17:50",94.02,-0.570,1.020,118.95,8.40e+01,2,,8.75e+01,2.63e+00,1,1.36e+01
"1/0365295651.61283",2014-11-28T23:00:55.874,13847,595.00,80.08,79.97,"13:00:40",93.31,-0.560,1.030,118.59,7.40e+01,2,,6.79e+01,2.58e+00,1,1.39e+01
"1/0365295659.31333",2014-11-28T23:01:03.417,13847,589.00,80.49,80.38,"15:59:33",92.53,-0.550,1.030,118.23,7.70e+01,2,,7.35e+01,2.48e+00,1,1.44e+01
"1/0365295667.01449",2014-11-28T23:01:10.961,13847,583.00,80.90,80.80,"19:14:29",91.68,-0.550,1.030,117.87,8.30e+01,2,,8.54e+01,,,
"1/0365295674.37035",2014-11-28T23:01:18.504,13847,577.00,81.31,81.21,"22:50:02",90.74,-0.540,1.030,117.50,7.80e+01,2,,7.54e+01,,,
"1/0365295682.07085",2014-11-28T23:01:26.047,13847,572.00,81.72,81.62,"02:48:31",89.70,-0.530,1.030,117.14,7.80e+01,2,,7.54e+01,2.50e+00,2,1.43e+01
"1/0365295689.42671",2014-11-28T23:01:33.590,13847,566.00,82.12,82.03,"07:12:12",88.55,-0.520,1.040,116.77,8.90e+01,2,,9.82e+01,2.60e+00,1,1.37e+01
"1/0365295697.12787",2014-11-28T23:01:41.134,13847,561.00,82.52,82.44,"12:03:23",87.28,-0.520,1.040,116.41,1.00e+02,2,,1.24e+02,2.63e+00,2,1.36e+01
"1/0365295704.48373",2014-11-28T23:01:48.677,13847,555.00,82.92,82.84,"17:31:14",85.85,-0.510,1.040,116.04,1.00e+02,2,,1.24e+02,2.65e+00,1,1.35e+01
"1/0365295712.18423",2014-11-28T23:01:56.220,13847,550.00,83.32,83.24,"23:40:20",84.24,-0.500,1.040,115.67,9.20e+01,2,,1.05e+02,,,
"1/0365295719.54009",2014-11-28T23:02:03.763,13847,544.00,83.71,83.63,"06:37:35",82.42,-0.490,1.040,115.29,9.90e+01,2,,1.22e+02,2.70e+00,1,1.32e+01
"1/0365295727.24059",2014-11-28T23:02:11.306,13847,539.00,84.09,84.02,"14:29:49",80.36,-0.490,1.040,114.92,1.01e+02,2,,1.26e+02,,,
"1/0365295734.59710",2014-11-28T23:02:18.850,13847,534.00,84.47,84.40,"23:28:31",78.01,-0.480,1.050,114.55,9.40e+01,2,,1.10e+02,2.52e+00,1,1.41e+01
"1/0365295742.29760",2014-11-28T23:02:26.393,13847,529.00,84.83,84.77,"09:49:44",75.30,-0.470,1.050,114.17,1.13e+02,2,,1.58e+02,2.39e+00,1,1.49e+01
"1/0365295749.65346",2014-11-28T23:02:33.936,13847,524.00,85.19,85.13,"21:44:54",72.18,-0.460,1.050,113.79,1.20e+02,2,,1.79e+02,2.31e+00,1,1.55e+01
"1/0365295757.35396",2014-11-28T23:02:41.479,13847,519.00,85.52,85.47,"11:32:22",68.57,-0.460,1.050,113.41,1.08e+02,2,,1.45e+02,2.04e+00,1,1.75e+01
"1/0365295765.05446",2014-11-28T23:02:49.022,13847,514.00,85.84,85.79,"03:35:04",64.37,-0.450,1.050,113.03,1.07e+02,2,,1.42e+02,1.85e+00,1,1.93e+01
"1/0365295772.41098",2014-11-28T23:02:56.566,13847,510.00,86.13,86.08,"22:11:19",59.50,-0.440,1.060,112.65,1.34e+02,2,,2.23e+02,1.73e+00,2,2.07e+01
"1/0365295780.11148",2014-11-28T23:03:04.109,13847,505.00,86.39,86.35,"19:44:01",53.86,-0.430,1.060,112.27,9.90e+01,2,,1.22e+02,1.58e+00,2,2.25e+01
"1/0365295787.46734",2014-11-28T23:03:11.652,13847,500.00,86.61,86.57,"20:24:40",47.40,-0.430,1.060,111.88,9.10e+01,2,,1.03e+02,1.66e+00,2,2.16e+01
"1/0365295795.16784",2014-11-28T23:03:19.195,13847,496.00,86.78,86.74,"00:08:40",40.14,-0.420,1.060,111.50,9.00e+01,2,,1.00e+02,1.85e+00,2,1.93e+01
"1/0365295802.52370",2014-11-28T23:03:26.738,13847,491.00,86.90,86.86,"06:33:05",32.18,-0.410,1.060,111.11,8.40e+01,2,,8.75e+01,1.94e+00,2,1.84e+01
"1/0365295810.22486",2014-11-28T23:03:34.282,13847,487.00,86.95,86.91,"14:40:38",23.77,-0.400,1.060,110.72,9.10e+01,2,,1.03e+02,1.98e+00,2,1.80e+01
"1/0365295817.58072",2014-11-28T23:03:41.825,13847,483.00,86.93,86.89,"23:13:24",15.25,-0.390,1.060,110.33,9.50e+01,2,,1.12e+02,1.92e+00,2,1.86e+01
"1/0365295825.28122",2014-11-28T23:03:49.368,13847,479.00,86.85,86.80,"06:46:34",6.99,-0.390,1.070,109.94,9.50e+01,2,,1.12e+02,1.84e+00,2,1.94e+01
"1/0365295832.63708",2014-11-28T23:03:56.911,13847,475.00,86.70,86.66,"05:03:11",359.30,-0.380,1.070,109.55,1.09e+02,2,,1.47e+02,1.83e+00,2,1.95e+01
"1/0365295840.33758",2014-11-28T23:04:04.454,13847,471.00,86.50,86.45,"07:31:33",352.37,-0.370,1.070,109.15,1.17e+02,2,,1.70e+02,1.71e+00,2,2.09e+01
"1/0365295848.03873",2014-11-28T23:04:11.998,13847,467.00,86.25,86.20,"06:54:16",346.25,-0.360,1.070,108.76,1.24e+02,2,,1.91e+02,1.68e+00,1,2.13e+01
"1/0365295855.39459",2014-11-28T23:04:19.541,13847,463.00,85.97,85.91,"03:11:21",340.94,-0.360,1.070,108.37,1.28e+02,2,,2.03e+02,1.67e+00,2,2.13e+01
"1/0365295863.09509",2014-11-28T23:04:27.084,13847,459.00,85.65,85.59,"20:41:08",336.36,-0.350,1.070,107.97,1.27e+02,2,,2.00e+02,1.67e+00,2,2.13e+01
"1/0365295870.45095",2014-11-28T23:04:34.627,13847,456.00,85.31,85.25,"11:44:15",332.42,-0.340,1.080,107.57,1.30e+02,2,,2.10e+02,1.70e+00,1,2.10e+01
"1/0365295878.15145",2014-11-28T23:04:42.170,13847,452.00,84.95,84.88,"00:41:18",329.03,-0.330,1.080,107.17,1.54e+02,2,,2.94e+02,1.73e+00,1,2.06e+01
"1/0365295885.50797",2014-11-28T23:04:49.714,13847,449.00,84.57,84.50,"11:55:13",326.09,-0.320,1.080,106.77,1.98e+02,2,,4.86e+02,2.03e+00,2,1.76e+01
"1/0365295893.20847",2014-11-28T23:04:57.257,13847,445.00,84.18,84.11,"21:39:45",323.54,-0.320,1.080,106.37,1.96e+02,2,,4.76e+02,2.06e+00,1,1.73e+01
"1/0365295900.56433",2014-11-28T23:05:04.800,13847,442.00,83.78,83.70,"06:08:40",321.32,-0.310,1.080,105.97,1.69e+02,2,,3.54e+02,1.66e+00,2,2.15e+01
"1/0365295908.26483",2014-11-28T23:05:12.343,13847,439.00,83.37,83.28,"13:37:59",319.36,-0.300,1.080,105.57,1.51e+02,2,,2.83e+02,1.53e+00,2,2.33e+01
"1/0365295915.62069",2014-11-28T23:05:19.886,13847,436.00,82.95,82.86,"20:12:18",317.64,-0.290,1.080,105.16,1.43e+02,2,,2.54e+02,1.52e+00,2,2.35e+01
"1/0365295923.32184",2014-11-28T23:05:27.430,13847,433.00,82.52,82.43,"02:03:05",316.11,-0.280,1.080,104.76,1.66e+02,2,,3.42e+02,1.55e+00,2,2.30e+01
"1/0365295931.02235",2014-11-28T23:05:34.973,13847,430.00,82.09,81.99,"07:17:11",314.74,-0.280,1.090,104.35,1.82e+02,2,,4.11e+02,1.55e+00,2,2.31e+01
"1/0365295938.37821",2014-11-28T23:05:42.516,13847,427.00,81.66,81.55,"11:56:54",313.52,-0.270,1.090,103.95,1.40e+02,2,,2.43e+02,1.50e+00,2,2.39e+01
"1/0365295946.07871",2014-11-28T23:05:50.059,13847,424.00,81.22,81.11,"16:09:08",312.42,-0.260,1.090,103.54,1.44e+02,2,,2.57e+02,1.56e+00,2,2.29e+01
"1/0365295953.43457",2014-11-28T23:05:57.602,13847,422.00,80.77,80.66,"19:56:09",311.43,-0.250,1.090,103.13,1.71e+02,2,,3.63e+02,1.72e+00,2,2.08e+01
"1/0365295961.13572",2014-11-28T23:06:05.146,13847,419.00,80.33,80.21,"23:22:32",310.53,-0.240,1.090,102.72,2.03e+02,2,,5.11e+02,1.73e+00,2,2.07e+01
"1/0365295968.49158",2014-11-28T23:06:12.689,13847,417.00,79.88,79.75,"02:30:35",309.71,-0.240,1.090,102.31,2.17e+02,2,,5.84e+02,1.56e+00,2,2.29e+01
"1/0365295976.19208",2014-11-28T23:06:20.232,13847,414.00,79.42,79.30,"05:22:35",308.96,-0.230,1.090,101.90,1.86e+02,2,,4.29e+02,1.44e+00,2,2.47e+01
"1/0365295983.54794",2014-11-28T23:06:27.775,13847,412.00,78.97,78.84,"08:00:51",308.27,-0.220,1.090,101.49,1.54e+02,2,,2.94e+02,1.32e+00,3,2.70e+01
"1/0365295991.24844",2014-11-28T23:06:35.318,13847,410.00,78.51,78.38,"10:25:21",307.64,-0.210,1.090,101.08,1.40e+02,2,,2.43e+02,1.39e+00,2,2.58e+01
"1/0365295998.60496",2014-11-28T23:06:42.862,13847,408.00,78.05,77.91,"12:40:42",307.05,-0.200,1.090,100.67,1.63e+02,2,,3.29e+02,1.57e+00,2,2.27e+01
"1/0365296006.30546",2014-11-28T23:06:50.405,13847,406.00,77.59,77.45,"14:44:35",306.51,-0.200,1.100,100.26,1.73e+02,2,,3.71e+02,1.65e+00,2,2.17e+01
"1/0365296014.00596",2014-11-28T23:06:57.948,13847,404.00,77.13,76.98,"16:37:00",306.02,-0.190,1.100,99.84,1.76e+02,2,,3.84e+02,1.61e+00,2,2.22e+01
"1/0365296021.36182",2014-11-28T23:07:05.491,13847,402.00,76.67,76.51,"18:24:50",305.55,-0.180,1.100,99.43,1.72e+02,2,,3.67e+02,1.53e+00,2,2.34e+01
"1/0365296029.06232",2014-11-28T23:07:13.034,13847,400.00,76.21,76.04,"20:03:31",305.12,-0.170,1.100,99.01,1.60e+02,2,,3.17e+02,1.41e+00,2,2.53e+01
"1/0365296036.41883",2014-11-28T23:07:20.578,13847,399.00,75.74,75.57,"21:35:18",304.72,-0.160,1.100,98.60,1.56e+02,2,,3.02e+02,1.29e+00,3,2.77e+01
"1/0365296044.11934",2014-11-28T23:07:28.121,13847,397.00,75.27,75.10,"23:02:31",304.34,-0.150,1.100,98.18,1.59e+02,2,,3.14e+02,1.29e+00,3,2.77e+01